Weather History for Milwaukee, WI

Change the Weather History Date:

Sunday, August 18, 2013

  Actual Average Record
Temperature  
Mean Temperature 68 °F 71 °F  
Max Temperature 78 °F 79 °F 97 °F (1947)
Min Temperature 57 °F 63 °F 44 °F (1962)
Degree Days  
Heating Degree Days 0 0  
Month to date heating degree days 8 0  
Since 1 June heating degree days 109 95  
Since 1 July heating degree days 22 11  
Cooling Degree Days 3 6  
Month to date cooling degree days 64 122  
Year to date cooling degree days 443 494  
Since 1 June cooling degree days 404 464  
Growing Degree Days 18 (Base 50)    
Moisture  
Dew Point 56 °F    
Average Humidity 66    
Maximum Humidity 86    
Minimum Humidity 46    
Precipitation  
Precipitation 0.00 in 0.14 in 2.45 in (1990)
Month to date precipitation 1.60 2.41  
Year to date precipitation 28.46 22.62  
Snow  
Snow 0.00 in 0.00 in 0.00 in ()
Month to date snowfall 0.0 0.0  
Since 1 June snowfall 0.0 0.0  
Since 1 July snowfall 0.0 0.0  
Snow Depth 0.00 in    
Sea Level Pressure  
Sea Level Pressure 30.17 in    
Wind  
Wind Speed 5 mph (SE)    
Max Wind Speed 14 mph    
Max Gust Speed 18 mph    
Visibility 10 miles    
Events      
T = Trace of Precipitation, MM = Missing Value Source: NWS Daily Summary

Daily Weather History Graph

Daily Weather History Graph

Search for Another Location

Airport:

Trip Planner

Search our weather history database for the weather conditions in past years. The results will help you decide how hot, cold, wet, or windy it might be!

Date:

Astronomy

Aug. 18, 2013 Rise Set
Actual Time 6:01 AM CDT 7:48 PM CDT
Civil Twilight 5:30 AM CDT 8:19 PM CDT
Nautical Twilight 4:53 AM CDT 8:55 PM CDT
Astronomical Twilight 4:13 AM CDT 9:35 PM CDT
Moon 5:56 PM CDT (8/18) 3:08 AM CDT (8/18)
Length of Visible Light 14h 48m
Length of Day
13h 47m
Waxing Gibbous, 92% of the Moon is Illuminated
Aug 18
Waxing Gibbous
Aug 20
Full
Aug 28
Last Quarter
Sep 5
New
Sep 12
First Quarter

Hourly Weather History & Observations

Time (CDT) Temp. Dew Point Humidity Pressure Visibility Wind Dir Wind Speed Gust Speed Precip Events Conditions
12:52 AM 60.1 °F 55.0 °F 83% 30.18 in 9.0 mi Calm Calm - N/A   Clear
1:52 AM 57.9 °F 54.0 °F 87% 30.18 in 7.0 mi SE 3.5 mph - N/A   Clear
2:52 AM 60.1 °F 55.0 °F 83% 30.18 in 8.0 mi Calm Calm - N/A   Clear
3:52 AM 59.0 °F 54.0 °F 83% 30.19 in 9.0 mi Calm Calm - N/A   Clear
4:52 AM 60.1 °F 55.0 °F 83% 30.19 in 10.0 mi Calm Calm - N/A   Clear
5:52 AM 59.0 °F 54.0 °F 83% 30.21 in 10.0 mi WNW 3.5 mph - N/A   Clear
6:52 AM 60.1 °F 54.0 °F 80% 30.22 in 10.0 mi Calm Calm - N/A   Clear
7:52 AM 66.9 °F 59.0 °F 76% 30.22 in 9.0 mi Calm Calm - N/A   Clear
8:52 AM 72.0 °F 61.0 °F 68% 30.22 in 10.0 mi Calm Calm - N/A   Clear
9:52 AM 73.9 °F 57.0 °F 55% 30.22 in 10.0 mi Calm Calm - N/A   Partly Cloudy
10:52 AM 75.0 °F 59.0 °F 57% 30.21 in 10.0 mi Variable 6.9 mph - N/A   Partly Cloudy
11:52 AM 75.9 °F 60.1 °F 58% 30.20 in 10.0 mi ESE 9.2 mph - N/A   Partly Cloudy
12:52 PM 77.0 °F 59.0 °F 54% 30.18 in 10.0 mi East 11.5 mph - N/A   Scattered Clouds
1:52 PM 77.0 °F 55.9 °F 48% 30.17 in 10.0 mi SE 11.5 mph - N/A   Scattered Clouds
2:52 PM 77.0 °F 55.9 °F 48% 30.16 in 10.0 mi ESE 11.5 mph - N/A   Scattered Clouds
3:52 PM 77.0 °F 55.9 °F 48% 30.14 in 10.0 mi SE 11.5 mph - N/A   Scattered Clouds
4:52 PM 75.9 °F 54.0 °F 46% 30.13 in 10.0 mi SE 10.4 mph - N/A   Scattered Clouds
5:52 PM 75.0 °F 55.0 °F 50% 30.13 in 10.0 mi SSE 11.5 mph - N/A   Scattered Clouds
6:52 PM 73.0 °F 55.0 °F 53% 30.12 in 10.0 mi SSE 6.9 mph - N/A   Scattered Clouds
7:52 PM 70.0 °F 57.0 °F 63% 30.11 in 10.0 mi SSE 4.6 mph - N/A   Scattered Clouds
8:52 PM 69.1 °F 57.9 °F 68% 30.12 in 10.0 mi South 5.8 mph - N/A   Clear
9:52 PM 68.0 °F 57.9 °F 70% 30.12 in 10.0 mi Variable 4.6 mph - N/A   Clear
10:52 PM 66.9 °F 57.9 °F 73% 30.11 in 10.0 mi Calm Calm - N/A   Clear
11:52 PM 66.0 °F 59.0 °F 78% 30.11 in 10.0 mi SW 4.6 mph - N/A   Clear